Find Starlink 4480

NORAD ID: 53416 Int'l Des: 2022-097 Owner: SPXS Country: US Constellation: starlink operational
LEOCIRCULAR

当前视图

正在加载3D地球...

关于 Starlink 4480

正在加载描述...

即将过境

Passes for default location (London). Set your location on the main map for personalized predictions.

高度历史

Loading altitude history...

两行轨道根数

1 53416U 22097AE 26151.14538911 -.00000600 00000-0 -19578-4 0 9998
2 53416 53.1943 103.8998 0001523 64.1698 295.9451 15.08842265211076
Epoch: May 31, 2026 • Age: 19 hours

当前状态

高度 542.4 km
速度 7.59 km/s
星下点 -10.52°S, 134.66°W
发射日期 Aug 10, 2022
运行时间 3.8 years
类型 internet

技术详情

分类 Payload
质量 297.00 kg
干质量 275.00 kg
总质量 297.00 kg
长度 0.20 m
直径 2.80 m
跨度 9.00 m
形状 Box + pan
制造商 SPXS
平台类型 Starlink
阶段状态 In Orbit
所有者/国家 SPXS/US

Most Searched